Find Starlink 32897

NORAD ID: 62967 Int'l Des: 2025-029 Owner: SPXS Country: US Constellation: starlink operational
LEOCIRCULAR

現在のビュー

3D地球を読み込み中...

About Starlink 32897

Starlink 32897 (NORAD 62967) is a starlink constellation satellite (v2 mini) launched Feb 11, 2025 by SPXS of US. It operates in LEO, CIRCULAR orbit with a mass of 730.00 kg.

次回通過

Passes for default location (London). Set your location on the main map for personalized predictions.

高度履歴

Loading altitude history...

軌道要素

1 62967U 25029V 26263.37616785 .00017414 00000-0 52506-3 0 9998
2 62967 53.1554 44.0022 0003120 48.8099 311.3172 15.34414091 91180
Epoch: Sep 20, 2026 • Age: 10 hours

現在のステータス

高度 470.1 km
遠地点 / 近地点 N/A
速度 7.63 km/s
衛星直下点 -19.90°S, 51.5°W
打ち上げ日 Feb 11, 2025
運用期間 1.6 years
タイプ internet

技術仕様

分類 Payload
質量 730.00 kg
乾燥質量 700.00 kg
長さ 0.30 m
スパン 29.00 m
形状 ? Box + pan
製造者 SPXS
バスタイプ Starlink V2M
フェーズステータス In Orbit
所有者/国 SPXS/US

Most Searched